Regional Weather Roundup
Issued by NWS

Home | Current Version | Previous Version | Text Only | Print | Product List | Glossary On
Versions: 1 2 3 4 5 6 7 8 9 10 11 12 13 14 15 16 17 18 19 20 21 22 23 24 25 26 27 28 29 30 31 32 33 34 35 36 37 38 39 40 41 42 43 44 45 46 47 48 49 50
000
ASUS44 KJAN 050810
RWRMS

MISSISSIPPI HOURLY WEATHER ROUNDUP
NATIONAL WEATHER SERVICE JACKSON MS
300 AM CDT SAT SEP 05 2015

NOTE: "FAIR: INDICATES FEW OR NO CLOUDS BELOW 12,000 FEET WITH NO
SIGNIFICANT WEATHER AND/OR OBSTRUCTIONS TO VISIBILITY.

MSZ001>002-007>008-010>013-018>021-025>028-034>036-050900-
NORTHWEST MISSISSIPPI

CITY           SKY/WX    TMP DP  RH WIND       PRES   REMARKS
CLARKSDALE       N/A     72  72 100 CALM      30.00S
CLEVELAND      FAIR      76  73  91 CALM      29.97S
GREENWOOD      CLEAR     76  69  79 E3        29.98S
GREENVILLE     CLEAR     75  70  84 CALM      29.97S
OLIVE BRANCH   CLEAR     73  73 100 CALM      30.01F
OXFORD         FAIR      72  70  94 CALM      30.02F
TUNICA           N/A    N/A N/A N/A MISG        N/A
$$

MSZ003>006-009-014>017-022>024-029>033-037>039-050900-
NORTHEAST MISSISSIPPI

CITY           SKY/WX    TMP DP  RH WIND       PRES   REMARKS
COLUMBUS AFB   CLEAR     73  71  95 CALM      29.98F
CORINTH        FOG       70  68  94 CALM      30.01S VSB 1/2
GOLDN TRIANGLE CLEAR     73  66  78 CALM      29.99S
STARKVILLE     FAIR      72  70  94 CALM      30.00S
TUPELO         CLEAR     73  70  90 NE6       30.00F
$$

MSZ040-058-050900-
CENTRAL MISSISSIPPI

CITY           SKY/WX    TMP DP  RH WIND       PRES   REMARKS
JACKSON INTL   CLEAR     75  70  84 S3        29.98S
JACKSON HAWKNS CLEAR     77  72  84 CALM      29.99R
MERIDIAN KEY   CLEAR     74  72  93 CALM      29.98F
MERIDIAN NAS   CLEAR     74  71  91 CALM      29.98F
VICKSBURG      CLEAR     75  72  90 CALM      29.97S
$$

MSZ059>079-050900-
SOUTH MISSISSIPPI

CITY           SKY/WX    TMP DP  RH WIND       PRES   REMARKS
BROOKHAVEN       N/A     73  72  94 CALM      30.01S
HATTIESBURG    CLEAR     75  72  90 CALM      29.99S
MCCOMB         CLEAR     73  73 100 CALM      29.99S
NATCHEZ        CLEAR     73  72  94 CALM      29.99S
PINE BELT      CLEAR     73  66  78 CALM      30.00S
$$

MSZ080>082-050900-
COASTAL MISSISSIPPI

CITY           SKY/WX    TMP DP  RH WIND       PRES   REMARKS
BILOXI         CLEAR     78  75  89 NW1       29.97S
PASCAGOULA     CLEAR     72  72 100 CALM      29.97S
GULFPORT       CLEAR     75  73  93 CALM      29.97S
$$


USA.gov is the U.S. government's official web portal to all federal, state and local government web resources and services.